Weather in Gimoly

Russia / Republic of Karelia     62°56′03″N   32°31′32″E
temp.,
°C
wind,
m/s
gust,
m/s
humid.,
%
clouds,
%
prec.,
mm/h
press.,
hPa
HPBL,
m
1 march, mon
mon100:00−2wsw499669 0.0 1014348
03:00+1w6129885 0.0 1013739
06:00+2w51297100 0.0 1010550
09:00+2w61396100 0.0 1009655
12:00+2w51399100 0.1 1006638
15:00+2wnw61399100 1.0 1005793
18:00+2w41294100 0.1 1002765
21:00+1wnw61487100 0.3 10021206
2 march, tue
tue200:00−2wnw6148631 0.0 1002659
03:00−3wnw6158416 0.0 1003790
06:00−3nw615830 0.0 1003765
09:00−4nw5138415 0.0 10051021
12:00−3nw613700 0.0 10071384
15:00−3nw612680 0.0 10101466
18:00−5nw413780 0.0 1012727
21:00−5wnw413852 0.0 1012513
3 march, wed
wed300:00−5wnw4119263 0.0 1011423
03:00−5wnw4139150 0.0 1011501
06:00−5wnw4139031 0.0 1009538
09:00−5wnw4118952 0.0 1009525
12:00−3wnw598893 0.0 1007610
15:00−1w498695 0.0 1006567
18:00−3sw379692 0.1 1001412
21:00−2ssw499797 2.6 996588
4 march, thu
thu400:00−2wnw61295100 1.6 993859
03:00−4nw51095100 2.1 993598
06:00−5n51093100 1.8 994722
09:00−8n41092100 1.8 996548
12:00−6n478786 0.0 998609
15:00−5nnw478692 0.1 1000834
18:00−7nnw3994100 0.2 1000584
21:00−9nw289698 0.4 1001316
5 march, fri
fri500:00−12nw239659 0.0 100263
03:00−14wnw229753 0.1 100348
06:00−13nnw269792 0.1 1005188
09:00−14nne499295 0.1 1007458
12:00−13nne378147 0.0 1009622
15:00−11n358261 0.0 1011773
18:00−13nnw2293100 0.0 101260
21:00−15nw229469 0.0 101220